Location: ???????
(55.4362°N, 38.1183°E)
Time: 13:20:29
(UTC+00:00)

Lacrosse 4 Rocket - Pass Details

Date: 01 November 2021
Orbit: 537 x 619 km, 68.0° (Epoch: 03 December)

Event Time Altitude Azimuth Distance (km) Brightness Sun altitude
Rises 14:45:43 0° 311° (NW) 2,827 5.5 -8.5°
Reaches altitude 10° 14:48:32 10° 292° (WNW) 1,937 5.0 -8.9°
Maximum altitude 14:51:25 18° 250° (WSW) 1,516 4.9 -9.3°
Drops below altitude 10° 14:54:20 10° 209° (SSW) 1,956 4.7 -9.7°
Sets 14:57:12 0° 190° (S) 2,866 5.3 -10.1°
